Location: Bottenau
(48.5138°N, 8.0462°E)
Time: 19:21:21
(UTC+00:00)

CZ-4C R/B - Pass Details

Date: 18 April 2021
Orbit: 611 x 1390 km, 63.4° (Epoch: 18 May)

Event Time Altitude Azimuth Distance (km) Brightness Sun altitude
Rises 20:14:53 0° 264° (W) 3,167 5.9 -16.9°
Reaches altitude 10° 20:17:23 10° 275° (W) 2,345 5.3 -17.2°
Maximum altitude 20:22:07 30° 336° (NNW) 1,554 4.2 -17.8°
Drops below altitude 10° 20:27:44 10° 36° (NE) 2,809 5.0 -18.4°
Sets 20:31:01 0° 47° (NE) 3,907 5.6 -18.8°
